Location: Absher
(46.5583°N, 107.9840°W)
Time: 14:36:51
(UTC+00:00)

Tiangong - Pass Details

Date: 05 December 2022
Orbit: 383 x 387 km, 41.5° (Epoch: 27 January)

Event Time Altitude Azimuth Distance (km) Brightness Sun altitude
Rises 01:34:50 0° 257° (WSW) 2,260 3.3 -21.5°
Reaches altitude 10° 01:37:01 10° 247° (WSW) 1,409 1.8 -21.8°
Enters shadow 01:39:24 30° 202° (SSW) 720 -0.5 -22.2°
